Temp
19 18 18 20 21 22 22 22 22 23 24 24 23 22 23 24 23 22 22 21 20 19 17 15 13 11 10 9 9 10 11 12 12 11 11 11 10 9 7 7 7 6 8 8
19 19 20 22 22 22 22 21 21 22 23 23 22 22 23 23 23 23 22 22 21 20 18 15 12 10 9 8 8 8 8 10 11 11 11 10 10 9 8 7 6 5 7 7
19 20 22 21 21 21 21 20 20 20 22 22 22 21 21 23 23 23 23 22 22 20 18 14 11 9 9 8 7 7 7 7 10 10 7 9 8 8 8 7 5 6 5 4
19 21 21 21 20 20 19 21 21 21 20 19 21 19 22 23 24 24 23 22 21 21 17 13 10 9 8 8 7 7 6 6 9 9 8 8 6 6 6 5 5 5 4 4
17 19 19 19 20 21 19 20 20 20 19 19 19 19 21 23 23 23 23 21 21 20 17 12 11 10 9 7 6 5 5 6 7 8 8 7 7 6 5 4 5 4 4 3
17 18 18 19 20 19 20 19 19 19 18 16 18 19 20 21 23 23 23 21 20 17 14 12 11 10 8 7 5 5 5 5 6 7 7 7 6 6 5 4 4 3 3 2
15 15 17 18 17 18 17 16 15 15 15 15 19 19 20 22 23 23 21 20 19 18 14 13 11 9 7 6 5 5 5 4 5 6 6 5 5 4 4 3 4 4 2 2
15 15 17 18 17 16 17 16 14 13 14 17 20 18 21 22 21 20 20 19 18 15 13 11 10 8 7 5 4 4 4 4 3 3 3 4 4 3 2 3 3 2 1 0
14 16 19 18 18 18 16 15 17 14 15 14 16 18 20 21 19 19 19 19 17 14 12 11 9 8 7 5 4 4 4 3 2 2 2 2 2 2 2 2 1 2 1 0
11 10 16 17 16 17 17 17 14 10 10 12 15 17 18 16 16 17 17 17 15 13 11 10 9 8 6 5 3 2 3 2 2 2 2 1 1 1 1 0 0 1 0 -1
12 10 14 16 12 13 14 14 12 12 9 10 12 15 17 16 15 15 16 15 14 12 10 9 8 7 6 4 3 2 1 1 1 1 1 0 0 0 -1 -2 -2 -2 -2 -4
12 10 9 14 14 15 15 12 13 10 11 12 12 14 18 15 16 15 16 15 13 11 10 9 7 6 5 4 2 1 1 1 1 1 0 -1 -1 -1 -2 -3 -3 -3 -4 -4
10 11 10 12 14 15 14 12 11 9 8 8 9 12 17 15 16 13 13 13 13 11 9 8 6 5 4 2 2 1 0 -0 0 -1 -2 -2 -2 -3 -3 -3 -3 -5 -5 -5
9 9 10 9 11 12 10 11 12 10 6 8 11 12 15 15 14 11 12 11 11 10 9 7 5 3 1 1 0 -0 -0 -1 -1 -2 -2 -3 -3 -4 -4 -4 -5 -5 -5 -6
10 8 10 10 11 12 12 12 12 11 9 7 8 10 12 14 14 15 15 13 11 10 8 5 3 2 1 0 -1 -2 -1 -1 -2 -2 -3 -3 -4 -4 -5 -6 -6 -5 -6 -6
10 8 9 9 11 11 11 12 12 12 12 12 12 12 15 15 15 15 15 15 13 11 8 3 3 2 1 0 -1 -2 -1 -2 -3 -3 -4 -4 -5 -5 -6 -6 -6 -6 -6 -7
9 7 8 7 9 10 8 10 11 10 12 12 10 12 13 13 14 14 14 14 12 10 6 1 2 1 -0 -2 -2 -2 -3 -2 -3 -4 -4 -5 -6 -6 -6 -7 -7 -7 -7 -7
7 7 7 6 7 5 9 12 12 12 12 13 13 13 14 14 14 13 12 13 12 9 4 1 -0 -1 -2 -2 -2 -2 -3 -3 -4 -4 -5 -6 -6 -7 -7 -7 -7 -7 -7 -8
9 8 6 5 6 8 9 11 12 11 12 14 13 13 13 14 14 10 10 11 9 6 3 1 -1 -1 -2 -2 -2 -2 -3 -3 -4 -5 -5 -6 -7 -7 -7 -8 -8 -8 -8 -8
8 8 6 6 5 5 8 11 12 13 9 13 11 11 9 6 11 7 6 6 5 3 0 -1 -1 -2 -2 -2 -2 -2 -3 -4 -5 -5 -6 -6 -7 -7 -8 -8 -8 -8 -9 -10
6 6 5 6 5 7 10 11 11 5 7 10 10 9 7 5 6 3 2 1 0 -0 -1 -2 -2 -2 -2 -2 -2 -3 -4 -4 -5 -5 -6 -6 -7 -7 -8 -8 -9 -10 -10 -11
6 5 3 4 5 4 10 10 9 10 9 10 10 8 6 5 4 3 2 1 0 -1 -1 -1 -2 -3 -3 -2 -3 -3 -4 -5 -5 -5 -6 -7 -7 -8 -8 -9 -10 -11 -11 -11
5 7 7 5 3 6 7 7 7 8 7 8 7 6 6 4 4 3 1 0 -1 -1 -1 -2 -3 -3 -4 -4 -4 -5 -5 -5 -5 -6 -6 -7 -7 -8 -9 -10 -11 -11 -12 -12
7 8 6 6 8 8 9 8 9 8 8 7 7 6 5 4 3 1 1 -1 -1 -2 -3 -3 -4 -5 -5 -6 -6 -6 -6 -5 -6 -7 -7 -8 -9 -9 -9 -10 -11 -12 -12 -13
5 6 6 6 6 6 6 8 8 7 6 5 4 5 5 3 1 -1 -2 -3 -3 -2 -2 -3 -4 -5 -6 -6 -7 -7 -7 -6 -7 -8 -8 -8 -9 -10 -10 -10 -11 -11 -12 -13
4 4 4 4 6 5 4 3 5 3 5 4 3 2 1 -1 -2 -2 -3 -3 -3 -3 -4 -5 -5 -6 -6 -7 -8 -8 -8 -8 -8 -9 -9 -9 -10 -10 -11 -11 -11 -12 -12 -13
Height
1478 1482 1480 1467 1463 1459 1459 1458 1457 1451 1446 1448 1451 1455 1454 1451 1454 1459 1461 1463 1469 1475 1483 1487 1492 1493 1497 1496 1498 1500 1501 1502 1502 1504 1504 1503 1504 1505 1505 1503 1502 1501 1499 1496
1474 1467 1465 1461 1456 1453 1454 1457 1458 1453 1449 1450 1449 1450 1450 1449 1446 1449 1455 1457 1461 1469 1476 1482 1488 1492 1496 1497 1499 1500 1501 1500 1501 1501 1501 1502 1502 1503 1503 1503 1502 1500 1498 1496
1462 1457 1454 1456 1456 1456 1452 1458 1457 1454 1447 1443 1447 1449 1448 1443 1440 1438 1441 1448 1452 1459 1469 1474 1483 1488 1493 1495 1497 1500 1500 1498 1499 1500 1500 1500 1502 1504 1503 1502 1501 1498 1497 1495
1454 1452 1450 1448 1453 1455 1455 1450 1451 1451 1452 1459 1445 1448 1435 1431 1429 1428 1431 1440 1447 1452 1460 1467 1478 1486 1492 1494 1495 1497 1498 1498 1496 1498 1499 1499 1501 1502 1501 1501 1499 1497 1496 1493
1448 1453 1451 1448 1448 1450 1451 1449 1448 1448 1453 1453 1447 1455 1433 1428 1425 1420 1417 1431 1440 1448 1454 1463 1475 1483 1489 1491 1494 1496 1497 1496 1496 1495 1496 1497 1498 1499 1499 1499 1497 1496 1493 1492
1448 1450 1450 1448 1445 1450 1448 1449 1449 1447 1453 1464 1445 1451 1422 1430 1419 1412 1413 1426 1439 1449 1455 1465 1474 1481 1485 1490 1493 1496 1498 1496 1495 1494 1494 1494 1495 1495 1496 1494 1494 1491 1491 1490
1455 1449 1447 1449 1450 1452 1454 1459 1467 1464 1462 1452 1435 1436 1420 1415 1412 1411 1414 1428 1437 1446 1453 1463 1472 1479 1484 1489 1493 1496 1497 1496 1494 1493 1493 1493 1493 1493 1493 1492 1490 1489 1487 1485
1451 1448 1439 1438 1441 1450 1450 1455 1464 1465 1458 1444 1426 1430 1418 1411 1416 1420 1420 1425 1435 1443 1451 1460 1470 1479 1485 1488 1492 1496 1497 1496 1495 1494 1492 1492 1492 1491 1491 1489 1488 1486 1485 1483
1448 1438 1427 1432 1436 1439 1446 1450 1445 1455 1449 1458 1440 1424 1414 1414 1422 1428 1427 1427 1436 1446 1453 1462 1470 1477 1481 1487 1491 1494 1496 1496 1495 1493 1492 1491 1491 1489 1488 1487 1485 1483 1481 1479
1461 1464 1433 1433 1439 1438 1438 1441 1453 1467 1470 1460 1438 1429 1423 1426 1428 1434 1434 1436 1443 1451 1458 1465 1472 1477 1481 1485 1488 1491 1493 1493 1493 1491 1490 1490 1489 1487 1486 1485 1482 1480 1478 1476
1460 1463 1442 1435 1445 1444 1445 1445 1454 1458 1466 1467 1458 1433 1422 1427 1431 1437 1438 1442 1447 1452 1458 1465 1469 1476 1481 1484 1486 1489 1490 1491 1490 1489 1489 1489 1487 1485 1484 1482 1480 1477 1475 1473
1456 1459 1459 1437 1439 1436 1438 1449 1450 1458 1455 1452 1450 1434 1419 1429 1432 1439 1439 1446 1449 1453 1459 1463 1468 1474 1478 1483 1486 1487 1488 1487 1487 1486 1486 1486 1486 1483 1482 1480 1478 1475 1473 1471
1464 1454 1452 1442 1437 1434 1437 1447 1456 1462 1466 1462 1461 1440 1427 1434 1436 1443 1446 1454 1452 1455 1459 1462 1466 1472 1476 1480 1483 1486 1486 1486 1485 1485 1485 1484 1484 1483 1480 1477 1475 1473 1471 1469
1462 1459 1457 1455 1444 1442 1453 1453 1452 1459 1474 1457 1445 1437 1429 1431 1440 1447 1451 1450 1454 1458 1462 1460 1461 1466 1472 1478 1481 1483 1483 1483 1484 1484 1483 1483 1482 1482 1478 1474 1473 1473 1470 1467
1459 1460 1455 1450 1447 1446 1443 1448 1446 1447 1453 1467 1456 1447 1437 1436 1433 1431 1434 1434 1439 1448 1453 1455 1460 1465 1471 1476 1477 1480 1482 1481 1481 1482 1482 1482 1480 1478 1475 1473 1473 1471 1468 1466
1451 1452 1454 1452 1446 1445 1444 1440 1437 1439 1437 1435 1437 1431 1428 1429 1427 1429 1429 1427 1429 1436 1447 1450 1457 1465 1471 1475 1476 1478 1479 1479 1480 1480 1480 1479 1477 1475 1473 1472 1470 1469 1467 1465
1449 1457 1453 1452 1447 1443 1447 1432 1434 1435 1432 1432 1436 1428 1426 1426 1425 1424 1423 1423 1424 1433 1436 1446 1454 1460 1467 1473 1476 1476 1477 1477 1478 1479 1479 1478 1475 1474 1472 1470 1469 1467 1466 1464
1454 1455 1456 1456 1452 1458 1431 1429 1426 1425 1422 1420 1418 1418 1417 1417 1416 1418 1420 1421 1422 1430 1444 1450 1454 1461 1466 1471 1473 1474 1476 1476 1477 1478 1479 1476 1473 1473 1471 1469 1468 1467 1465 1462
1449 1450 1453 1455 1450 1439 1432 1419 1423 1421 1418 1413 1413 1413 1412 1411 1412 1417 1420 1421 1420 1429 1439 1448 1455 1462 1465 1469 1473 1475 1475 1475 1476 1477 1477 1475 1473 1472 1470 1468 1468 1466 1463 1459
1441 1445 1449 1448 1448 1441 1421 1420 1421 1419 1420 1410 1414 1415 1416 1414 1407 1424 1423 1423 1426 1431 1440 1447 1455 1461 1465 1468 1472 1474 1474 1474 1475 1476 1475 1474 1472 1471 1470 1468 1467 1465 1460 1457
1437 1434 1437 1433 1437 1427 1414 1418 1414 1436 1426 1415 1419 1417 1417 1420 1419 1422 1427 1431 1435 1437 1443 1450 1457 1460 1463 1467 1471 1472 1474 1474 1475 1475 1474 1472 1472 1472 1470 1468 1465 1461 1458 1454
1430 1435 1441 1438 1435 1436 1415 1415 1418 1411 1413 1409 1413 1415 1421 1426 1428 1432 1434 1436 1438 1442 1448 1452 1456 1460 1463 1466 1469 1471 1473 1474 1474 1474 1473 1472 1472 1471 1469 1466 1463 1459 1455 1453
1429 1424 1422 1431 1431 1423 1419 1419 1416 1408 1414 1412 1414 1418 1422 1425 1425 1429 1435 1439 1443 1446 1451 1454 1456 1460 1463 1465 1468 1470 1472 1473 1473 1472 1473 1472 1470 1470 1467 1464 1461 1458 1455 1452
1421 1420 1419 1421 1414 1413 1412 1410 1408 1411 1412 1410 1416 1419 1421 1421 1426 1426 1434 1441 1447 1449 1451 1456 1457 1459 1461 1465 1467 1469 1471 1471 1471 1471 1472 1472 1470 1469 1466 1463 1461 1458 1455 1451
1423 1423 1418 1412 1412 1411 1406 1406 1403 1409 1411 1412 1409 1416 1418 1416 1424 1431 1434 1438 1449 1451 1454 1458 1458 1459 1462 1465 1466 1467 1468 1470 1470 1470 1470 1470 1468 1467 1466 1463 1461 1458 1455 1452
1424 1422 1420 1412 1411 1412 1415 1409 1407 1405 1407 1411 1408 1414 1417 1419 1423 1427 1435 1441 1448 1452 1455 1457 1458 1459 1462 1464 1464 1465 1465 1467 1469 1469 1468 1467 1466 1465 1465 1464 1463 1461 1458 1455
Wind_Speed
21 13 16 20 20 21 16 19 18 16 14 16 10 13 16 20 22 22 23 28 27 27 24 21 18 17 11 11 8 9 8 7 5 5 4 3 5 6 6 8 13 14 17 17
17 21 20 20 21 19 15 18 17 17 17 15 15 16 15 14 18 25 25 23 30 28 28 25 20 14 12 8 8 4 5 6 6 6 3 4 4 6 10 8 11 13 17 16
22 22 22 22 20 22 17 18 17 18 17 18 15 19 20 19 25 28 31 30 26 32 32 29 22 16 14 9 9 6 6 4 6 2 1 2 5 4 5 10 9 14 15 17
23 21 23 19 15 15 19 17 18 19 16 13 16 16 16 16 16 20 25 25 23 29 34 32 24 18 13 13 11 9 7 3 5 4 2 2 2 1 5 6 10 12 11 16
26 22 21 23 22 19 20 18 18 18 14 16 20 12 14 18 20 18 17 25 21 16 34 34 24 20 15 13 9 9 5 5 4 2 1 1 1 2 3 7 11 10 13 11
22 23 16 14 10 13 15 15 18 15 11 14 19 15 21 14 19 13 16 15 16 24 32 26 23 18 17 14 10 7 6 5 4 2 2 2 3 5 7 9 10 13 13 14
19 24 23 21 16 13 11 11 7 8 12 15 14 14 19 14 3 4 14 19 19 20 31 28 24 20 14 9 9 8 8 6 4 2 2 3 4 5 7 9 11 14 14 16
10 14 21 21 25 17 18 13 8 10 9 13 16 17 14 7 10 11 12 24 25 30 30 27 23 17 13 12 9 8 6 3 2 1 1 4 5 5 5 11 13 11 13 15
9 21 9 7 6 21 20 17 15 14 16 12 13 18 17 6 9 5 4 14 25 25 24 22 20 17 17 12 10 9 6 4 1 0 2 3 4 7 8 12 13 13 14 16
4 9 19 6 4 11 20 13 10 5 5 11 13 15 10 10 13 3 5 11 20 24 22 20 19 19 15 14 12 10 8 6 4 1 2 4 6 8 9 11 14 16 15 14
3 6 13 9 6 13 5 8 7 7 4 2 3 6 11 10 10 5 7 14 16 21 21 21 20 18 16 13 9 8 7 5 2 1 3 4 7 9 8 10 13 15 15 15
5 4 9 16 16 16 12 9 15 8 11 8 9 14 10 10 9 8 13 13 18 20 22 23 22 21 18 14 10 9 6 4 1 2 3 5 9 9 9 12 14 14 14 15
8 5 9 12 11 12 11 9 12 10 9 13 10 10 7 9 4 15 11 5 11 19 23 25 24 23 19 15 11 7 6 3 0 2 2 5 7 9 10 13 14 15 16 17
3 8 10 10 13 15 6 11 13 5 4 10 14 20 17 12 9 11 11 17 17 18 23 28 31 28 21 15 11 9 5 2 2 1 2 5 6 7 11 13 13 14 15 15
6 11 15 18 21 23 24 21 21 15 14 9 15 18 17 17 16 17 12 24 29 27 27 26 30 28 19 15 11 7 5 2 2 1 2 3 6 8 11 11 12 13 16 17
13 12 15 17 19 20 22 23 23 20 20 18 20 23 18 23 18 18 19 18 27 27 27 25 25 22 17 12 8 5 1 3 1 1 3 4 7 7 10 11 11 12 15 16
10 3 9 15 18 19 15 21 20 16 18 16 16 21 18 18 16 17 19 10 24 29 33 26 22 20 16 11 8 5 3 1 3 5 3 5 7 9 11 12 11 13 15 18
11 12 9 10 14 17 17 17 20 19 18 17 18 16 14 17 21 4 5 5 9 27 28 23 21 19 15 11 7 6 5 5 5 4 3 6 8 9 10 12 13 13 14 17
15 13 11 12 14 18 22 22 17 18 19 20 15 14 19 20 11 11 3 4 19 29 27 25 19 16 14 11 9 8 7 6 5 4 4 6 8 8 11 10 13 13 14 16
20 17 13 15 15 21 23 25 30 17 14 17 7 10 14 31 11 8 22 29 33 33 30 24 21 17 14 11 10 8 7 5 5 4 4 6 7 9 11 12 10 12 14 14
10 14 18 17 18 16 24 25 33 3 11 8 9 9 8 10 7 26 25 24 24 25 24 21 19 16 13 12 11 8 6 5 5 4 4 6 7 7 8 10 12 11 14 15
15 6 6 13 19 19 13 18 16 13 16 7 12 7 17 22 22 20 20 22 23 22 22 20 19 15 13 12 10 9 7 6 5 5 5 5 8 7 7 9 12 14 16 17
17 16 12 8 3 17 19 8 23 4 11 4 6 10 13 19 20 20 19 18 19 20 18 18 18 17 14 12 10 9 8 6 6 6 6 5 7 7 9 12 12 15 18 20
20 21 13 14 17 16 25 26 29 15 6 5 1 11 16 21 21 25 21 18 17 19 18 16 17 16 14 13 11 9 9 7 7 6 8 5 7 7 9 12 14 18 22 23
14 15 15 16 16 20 26 31 20 15 8 5 6 9 14 24 23 21 22 22 17 18 17 17 17 17 15 13 11 9 10 8 8 5 7 6 6 8 9 14 16 19 23 24
15 13 9 12 20 15 24 21 6 8 15 10 10 14 18 23 27 26 22 21 20 19 18 18 18 17 15 13 11 10 9 12 8 7 4 8 7 8 9 9 10 13 17 18
Wind_Direction
219 231 238 238 236 241 260 277 283 287 297 298 264 258 269 267 193 209 217 193 198 196 188 192 180 186 187 210 215 204 232 227 218 227 259 280 295 332 329 341 332 338 338 340
243 233 238 255 267 271 257 263 266 270 274 265 281 270 251 264 264 212 213 222 200 195 186 184 181 179 191 211 200 206 219 221 215 236 280 310 341 358 18 315 344 318 332 335
248 245 242 245 248 261 248 256 265 270 281 287 286 264 260 255 257 262 213 207 213 193 181 176 177 179 184 203 198 192 216 219 236 169 230 301 54 40 242 309 331 320 338 336
254 257 262 244 242 259 261 245 257 267 266 265 269 281 278 288 266 231 235 194 214 197 177 174 173 178 183 197 204 198 193 206 245 197 241 43 73 11 319 327 308 343 332 339
252 255 260 263 253 249 258 270 282 281 286 292 263 271 271 258 252 248 200 184 197 207 167 162 167 176 177 201 213 202 195 216 226 227 223 176 283 312 332 323 328 348 320 341
267 274 284 293 262 295 313 276 270 273 256 255 258 257 273 268 270 292 170 163 177 146 152 155 164 172 178 186 201 193 176 222 224 213 263 310 328 344 336 335 348 311 337 325
256 256 260 263 256 265 268 267 241 241 227 249 255 247 256 264 284 13 149 165 168 169 153 155 156 162 180 178 181 196 174 222 238 228 284 322 330 0 337 316 310 322 325 319
253 240 220 224 236 229 231 231 229 245 251 267 278 264 271 59 100 115 126 159 159 138 145 149 157 163 177 170 197 181 183 175 228 239 296 326 345 329 330 311 323 332 311 318
302 249 243 207 259 221 237 242 234 256 275 280 267 277 295 260 128 81 48 145 143 141 144 151 161 172 178 174 182 184 170 178 188 44 356 341 336 321 319 322 322 315 315 313
272 288 274 193 24 259 233 247 255 115 230 246 249 256 260 36 83 126 102 105 130 137 150 163 171 168 167 180 184 181 168 182 214 234 334 315 319 322 323 329 318 319 316 322
334 289 263 239 201 236 261 265 180 207 177 229 288 268 109 82 83 333 119 127 143 153 160 166 165 168 172 173 181 178 165 181 182 319 350 332 319 323 333 316 309 318 331 334
144 278 266 246 202 267 293 200 283 277 236 237 248 252 302 77 95 182 135 160 167 167 168 166 168 170 171 170 163 173 184 184 155 342 357 313 315 331 336 324 319 332 336 332
354 255 272 261 258 253 267 325 347 324 305 244 251 263 294 77 345 42 38 232 192 170 168 163 170 169 166 163 157 156 154 180 280 30 21 319 335 340 333 317 332 348 342 337
40 282 271 276 290 308 296 309 295 271 289 303 250 264 271 319 279 117 253 227 193 187 175 173 168 166 161 162 165 161 178 155 96 46 9 338 337 329 319 333 357 353 337 337
230 254 266 273 276 279 285 280 273 257 238 223 283 290 284 285 282 299 266 199 189 179 169 171 168 172 180 174 163 160 160 132 94 20 33 342 310 327 334 356 6 351 346 347
225 252 270 274 269 270 272 275 269 271 280 276 280 280 285 288 303 309 297 300 180 174 169 165 177 183 187 176 156 165 158 103 187 56 25 341 336 1 347 8 353 344 354 343
274 242 260 258 269 268 269 255 275 275 267 261 261 265 277 280 285 280 286 307 175 193 157 151 165 172 167 163 157 155 148 134 71 51 26 332 356 10 5 355 357 358 350 340
265 263 255 272 284 272 260 265 264 275 265 260 259 260 278 276 270 260 253 230 124 144 139 141 143 148 156 152 160 146 139 109 98 77 30 348 5 17 356 1 1 0 352 345
253 261 265 260 258 271 281 267 268 265 274 279 293 299 302 279 289 88 3 192 147 146 146 146 149 142 144 145 150 144 125 107 92 66 38 6 24 14 352 4 360 8 349 347
242 244 242 246 246 252 252 262 263 283 281 282 4 318 321 336 241 86 83 108 121 135 137 133 141 140 144 144 140 137 125 109 88 66 45 31 25 23 5 11 1 3 350 351
231 230 232 235 241 255 262 279 298 178 272 334 325 306 351 31 89 118 115 111 118 124 133 137 135 137 138 137 139 132 119 103 95 81 61 33 39 24 10 11 10 358 359 356
275 244 236 258 255 253 274 274 268 299 320 339 237 71 100 118 122 121 127 127 127 129 134 137 136 134 134 134 137 127 115 115 107 91 71 39 52 27 17 10 14 359 5 5
265 270 281 206 256 307 300 287 304 256 268 282 109 120 134 135 129 127 129 130 134 136 138 140 138 133 128 129 140 130 120 118 106 91 82 47 64 28 18 3 12 359 6 8
268 279 287 286 279 296 289 247 255 269 282 148 169 168 163 146 145 141 138 139 145 143 143 148 140 133 128 128 126 122 114 113 107 101 92 61 37 51 22 2 12 3 5 10
279 295 290 283 291 302 283 281 235 225 233 182 158 199 177 153 148 143 141 141 154 151 152 154 146 136 129 129 122 113 112 114 110 99 104 80 55 47 36 7 11 8 6 10
272 274 267 271 282 251 268 310 318 183 209 214 178 168 156 154 153 147 149 151 157 158 157 151 144 139 138 132 123 116 122 132 125 113 64 94 63 49 41 36 22 6 7 5